| time (UTC) | temp F | wind direction | speed knots | gust knots | rain 1hr in | rain 24hr in | rain mn in | humidity % | barometer mb |
| 20260504050017 | 60 | 60 | 0.0 | 0.0 | 0.00 | 0.00 | 0.00 | 84 | 1011.0 |
| 20260504044517 | 61 | 60 | 0.0 | 0.0 | 0.00 | 0.00 | 0.00 | 82 | 1010.9 |
| 20260504043020 | 62 | 60 | 0.0 | 0.0 | 0.00 | 0.00 | 0.00 | 80 | 1010.9 |
| 20260504041517 | 63 | 60 | 0.0 | 0.0 | 0.00 | 0.00 | 0.00 | 76 | 1010.7 |
| 20260504040018 | 65 | 60 | 0.0 | 0.0 | 0.00 | 0.00 | 0.00 | 73 | 1010.7 |
| 20260504034516 | 66 | 60 | 0.0 | 0.0 | 0.00 | 0.00 | 0.00 | 70 | 1010.6 |
| 20260504033015 | 69 | 62 | 0.0 | 0.0 | 0.00 | 0.00 | 0.00 | 64 | 1010.3 |
| 20260504031516 | 71 | 69 | 0.0 | 3.5 | 0.00 | 0.00 | 0.00 | 59 | 1010.2 |
| 20260504030014 | 73 | 33 | 1.7 | 7.0 | 0.00 | 0.00 | 0.00 | 55 | 1010.0 |
| 20260504024514 | 74 | 22 | 4.3 | 9.6 | 0.00 | 0.00 | 0.00 | 55 | 1009.9 |
| 20260504023016 | 74 | 328 | 3.5 | 7.8 | 0.00 | 0.00 | 0.00 | 53 | 1010.0 |
| 20260504021516 | 75 | 322 | 4.3 | 10.4 | 0.00 | 0.00 | 0.00 | 56 | 1010.0 |
| 20260504020010 | 75 | 349 | 4.3 | 8.7 | 0.00 | 0.00 | 0.00 | 56 | 1010.0 |
| 20260504014509 | 76 | 9 | 3.5 | 12.2 | 0.00 | 0.00 | 0.00 | 56 | 1009.9 |
| 20260504013009 | 76 | 38 | 5.2 | 11.3 | 0.00 | 0.00 | 0.00 | 56 | 1010.1 |
| 20260504011506 | 77 | 9 | 5.2 | 13.9 | 0.00 | 0.00 | 0.00 | 56 | 1010.2 |
| 20260504010004 | 78 | 335 | 7.0 | 12.2 | 0.00 | 0.00 | 0.00 | 58 | 1010.2 |
| 20260504004502 | 79 | 326 | 5.2 | 11.3 | 0.00 | 0.00 | 0.00 | 56 | 1010.2 |
| 20260504003001 | 80 | 14 | 4.3 | 9.6 | 0.00 | 0.00 | 0.00 | 55 | 1010.2 |
| 20260504001600 | 80 | 33 | 5.2 | 8.7 | 0.00 | 0.00 | 0.00 | 56 | 1010.3 |
| 20260504000138 | 80 | 31 | 5.2 | 13.0 | 0.00 | 0.00 | 0.00 | 54 | 1010.5 |
| 20260503234600 | 80 | 1 | 9.6 | 14.8 | 0.00 | 0.00 | 0.00 | 53 | 1010.5 |
| 20260503233054 | 83 | 12 | 7.8 | 13.0 | 0.00 | 0.00 | 0.00 | 51 | 1010.4 |
| 20260503231550 | 85 | 9 | 1.7 | 11.3 | 0.00 | 0.00 | 0.00 | 50 | 1010.7 |
| 20260503230050 | 84 | 318 | 3.5 | 10.4 | 0.00 | 0.00 | 0.00 | 47 | 1010.7 |
| 20260503224546 | 84 | 349 | 3.5 | 13.0 | 0.00 | 0.00 | 0.00 | 50 | 1010.9 |
| 20260503223045 | 82 | 360 | 5.2 | 10.4 | 0.00 | 0.00 | 0.00 | 54 | 1011.1 |
| 20260503221550 | 83 | 313 | 5.2 | 13.0 | 0.00 | 0.00 | 0.00 | 50 | 1011.1 |
| 20260503220041 | 84 | 2 | 1.7 | 8.7 | 0.00 | 0.00 | 0.00 | 47 | 1011.3 |
| 20260503214543 | 84 | 5 | 4.3 | 8.7 | 0.00 | 0.00 | 0.00 | 50 | 1011.4 |
| 20260503213037 | 84 | 298 | 3.5 | 9.6 | 0.00 | 0.00 | 0.00 | 52 | 1011.4 |
| 20260503211538 | 83 | 334 | 1.7 | 7.8 | 0.00 | 0.00 | 0.00 | 56 | 1011.5 |
| 20260503210034 | 82 | 309 | 2.6 | 8.7 | 0.00 | 0.00 | 0.00 | 57 | 1011.6 |
| 20260503204534 | 82 | 319 | 2.6 | 8.7 | 0.00 | 0.00 | 0.00 | 57 | 1011.7 |
| 20260503203040 | 81 | 313 | 6.1 | 9.6 | 0.00 | 0.00 | 0.00 | 56 | 1011.9 |
| 20260503201535 | 83 | 306 | 0.9 | 7.0 | 0.00 | 0.00 | 0.00 | 60 | 1012.1 |
| 20260503200027 | 85 | 49 | 0.9 | 9.6 | 0.00 | 0.00 | 0.00 | 43 | 1012.1 |
| 20260503194525 | 84 | 59 | 0.0 | 9.6 | 0.00 | 0.00 | 0.00 | 45 | 1012.3 |
| 20260503193022 | 83 | 116 | 4.3 | 10.4 | 0.00 | 0.00 | 0.00 | 45 | 1012.5 |
| 20260503191518 | 83 | 21 | 0.0 | 4.3 | 0.00 | 0.00 | 0.00 | 51 | 1012.7 |
| 20260503190017 | 82 | 59 | 0.9 | 9.6 | 0.00 | 0.00 | 0.00 | 47 | 1012.8 |
| 20260503184512 | 81 | 66 | 0.9 | 8.7 | 0.00 | 0.00 | 0.00 | 51 | 1013.0 |
| 20260503183009 | 80 | 95 | 3.5 | 11.3 | 0.00 | 0.00 | 0.00 | 52 | 1013.2 |
| 20260503181506 | 79 | 24 | 0.0 | 7.0 | 0.00 | 0.00 | 0.00 | 53 | 1013.2 |
| 20260503180002 | 78 | 53 | 1.7 | 9.6 | 0.00 | 0.00 | 0.00 | 53 | 1013.3 |
| 20260503174600 | 77 | 347 | 3.5 | 8.7 | 0.00 | 0.00 | 0.00 | 54 | 1013.3 |
| 20260503173101 | 77 | 72 | 0.0 | 7.8 | 0.00 | 0.00 | 0.00 | 57 | 1013.5 |
| 20260503171559 | 75 | 108 | 0.9 | 7.0 | 0.00 | 0.00 | 0.00 | 58 | 1013.6 |
| 20260503130104 | 47 | 259 | 0.0 | 0.0 | 0.00 | 0.00 | 0.00 | 100 | 1013.7 |
| 20260503081533 | 46 | 259 | 0.0 | 0.9 | 0.00 | 0.00 | 0.00 | 100 | 1014.8 |